VOE6CG LEZL-LEXJ

Flight info

Callsign VOE6CG
Flight time N/A
Altitude 34000
Route HIJ DCT PARKA DCT TLD DCT SIE DCT XERMA DCT ARLUN N865 UNGAS Y753 EMANU
Aircraft A320/M-SDE3FGHIRWY/LB1

Departure

Time 2026-04-30 14:24
Airport Seville Airport (LEZL)

Arrival

Time N/A
Airport Seve Ballesteros-Santander Airport (LEXJ)
Time Latitude Longitude Altitude Speed Heading
2026-04-30 14:05 37.42280 -5.89885 93 ft 0 kts 315°
2026-04-30 14:13 37.42267 -5.89869 95 ft 4 kts 318°
2026-04-30 14:13 37.42246 -5.89848 92 ft 4 kts 327°
2026-04-30 14:13 37.42223 -5.89833 94 ft 4 kts 350°
2026-04-30 14:14 37.42202 -5.89836 94 ft 2 kts 44°
2026-04-30 14:14 37.42198 -5.89841 94 ft 0 kts 45°
2026-04-30 14:16 37.42216 -5.89819 94 ft 9 kts 44°
2026-04-30 14:16 37.42259 -5.89738 94 ft 11 kts 92°
2026-04-30 14:16 37.42220 -5.89662 94 ft 10 kts 133°
2026-04-30 14:16 37.42180 -5.89610 95 ft 7 kts 135°
2026-04-30 14:17 37.42140 -5.89559 96 ft 11 kts 135°
2026-04-30 14:17 37.42091 -5.89496 98 ft 9 kts 134°
2026-04-30 14:17 37.42051 -5.89444 98 ft 8 kts 134°
2026-04-30 14:17 37.41997 -5.89371 101 ft 15 kts 128°
2026-04-30 14:18 37.41983 -5.89229 100 ft 16 kts 89°
2026-04-30 14:18 37.41984 -5.89098 101 ft 14 kts 90°
2026-04-30 14:18 37.41984 -5.88889 102 ft 10 kts 89°
2026-04-30 14:19 37.41985 -5.88697 103 ft 15 kts 90°
2026-04-30 14:19 37.41985 -5.88533 104 ft 22 kts 90°
2026-04-30 14:19 37.41986 -5.88330 105 ft 24 kts 90°
2026-04-30 14:20 37.41987 -5.88105 106 ft 27 kts 89°
2026-04-30 14:20 37.41988 -5.87862 108 ft 28 kts 90°
2026-04-30 14:20 37.41940 -5.87446 113 ft 13 kts 139°
2026-04-30 14:21 37.41902 -5.87427 115 ft 0 kts 169°
2026-04-30 14:21 37.41901 -5.87427 115 ft 1 kts 169°
2026-04-30 14:21 37.41800 -5.87506 116 ft 11 kts 270°
2026-04-30 14:22 37.41800 -5.87515 116 ft 0 kts 269°
2026-04-30 14:23 37.41799 -5.87778 112 ft 69 kts 269°
2026-04-30 14:24 37.41795 -5.89989 279 ft 161 kts 271°
2026-04-30 14:24 37.41796 -5.91384 1057 ft 159 kts 269°
2026-04-30 14:25 37.42905 -5.93703 2277 ft 176 kts 318°
2026-04-30 14:25 37.44955 -5.96039 2993 ft 223 kts 316°
2026-04-30 14:26 37.47457 -5.98966 4146 ft 262 kts 316°
2026-04-30 14:26 37.48806 -6.00550 5026 ft 269 kts 315°
2026-04-30 14:26 37.51571 -6.03808 6794 ft 278 kts 315°
2026-04-30 14:27 37.53008 -6.05509 7681 ft 282 kts 314°
2026-04-30 14:27 37.54449 -6.07217 8546 ft 286 kts 314°
2026-04-30 14:27 37.55891 -6.08925 9404 ft 290 kts 315°
2026-04-30 14:28 37.59699 -6.10855 10587 ft 326 kts
2026-04-30 14:28 37.61923 -6.09997 10990 ft 346 kts 32°
2026-04-30 14:28 37.63808 -6.08074 11673 ft 352 kts 41°
2026-04-30 14:28 37.65655 -6.06012 12443 ft 356 kts 42°
2026-04-30 14:29 37.69391 -6.01833 13994 ft 362 kts 42°
2026-04-30 14:29 37.73206 -5.97580 15315 ft 369 kts 42°
2026-04-30 14:30 37.79082 -5.91038 17265 ft 381 kts 42°
2026-04-30 14:31 37.83095 -5.86561 18499 ft 389 kts 42°
2026-04-30 14:31 37.87191 -5.81987 19576 ft 397 kts 42°
2026-04-30 14:31 37.89272 -5.79664 20108 ft 401 kts 42°
2026-04-30 14:32 37.93491 -5.74940 21141 ft 409 kts 42°
2026-04-30 14:32 37.95630 -5.72542 21642 ft 413 kts 41°
2026-04-30 14:32 37.97792 -5.70119 22123 ft 417 kts 41°
2026-04-30 14:33 37.99971 -5.67673 22622 ft 420 kts 41°
2026-04-30 14:33 38.04380 -5.62713 23587 ft 428 kts 41°
2026-04-30 14:33 38.06612 -5.60199 24024 ft 430 kts 42°
2026-04-30 14:34 38.08841 -5.57683 24502 ft 430 kts 42°
2026-04-30 14:34 38.11086 -5.55147 24928 ft 432 kts 42°
2026-04-30 14:34 38.13338 -5.52605 25340 ft 435 kts 42°
2026-04-30 14:34 38.15605 -5.50044 25726 ft 437 kts 42°
2026-04-30 14:35 38.20174 -5.44876 26501 ft 442 kts 42°
2026-04-30 14:35 38.22477 -5.42268 26877 ft 445 kts 42°
2026-04-30 14:35 38.24797 -5.39638 27255 ft 447 kts 42°
2026-04-30 14:36 38.27098 -5.37029 27622 ft 450 kts 42°
2026-04-30 14:36 38.29442 -5.34369 27985 ft 453 kts 42°
2026-04-30 14:36 38.31798 -5.31692 28322 ft 456 kts 42°
2026-04-30 14:36 38.34172 -5.28993 28651 ft 459 kts 42°
2026-04-30 14:37 38.36560 -5.26275 29012 ft 461 kts 42°
2026-04-30 14:37 38.38959 -5.23541 29368 ft 464 kts 42°
2026-04-30 14:37 38.41365 -5.20795 29720 ft 466 kts 42°
2026-04-30 14:37 38.43790 -5.18019 30054 ft 469 kts 42°
2026-04-30 14:38 38.46303 -5.15366 30335 ft 471 kts 35°
2026-04-30 14:38 38.49132 -5.13239 30592 ft 473 kts 25°
2026-04-30 14:38 38.52212 -5.11741 30855 ft 474 kts 14°
2026-04-30 14:38 38.55438 -5.10920 31124 ft 474 kts
2026-04-30 14:39 38.58740 -5.10791 31400 ft 474 kts 355°
2026-04-30 14:39 38.62028 -5.11118 31684 ft 474 kts 353°
2026-04-30 14:39 38.65313 -5.11455 32063 ft 473 kts 354°
2026-04-30 14:40 38.71872 -5.12117 32790 ft 472 kts 354°
2026-04-30 14:40 38.75145 -5.12446 33156 ft 472 kts 354°
2026-04-30 14:40 38.78415 -5.12776 33516 ft 471 kts 354°
2026-04-30 14:40 38.81683 -5.13105 33870 ft 471 kts 354°
2026-04-30 14:41 38.84951 -5.13438 34055 ft 470 kts 354°
2026-04-30 14:41 38.88178 -5.13768 34074 ft 461 kts 354°
2026-04-30 14:41 38.94537 -5.14392 34073 ft 457 kts 358°
2026-04-30 14:42 39.00809 -5.13281 34074 ft 457 kts 18°
2026-04-30 14:42 39.06429 -5.09681 34075 ft 456 kts 34°
2026-04-30 14:43 39.11801 -5.05216 34070 ft 457 kts 34°
2026-04-30 14:43 39.17125 -5.00828 34067 ft 457 kts 33°
2026-04-30 14:44 39.22472 -4.96416 34066 ft 456 kts 34°
2026-04-30 14:44 39.27807 -4.91984 34059 ft 456 kts 34°
2026-04-30 14:45 39.33139 -4.87523 34058 ft 456 kts 34°
2026-04-30 14:45 39.38472 -4.83071 34058 ft 457 kts 33°
2026-04-30 14:46 39.43813 -4.78619 34059 ft 457 kts 34°
2026-04-30 14:46 39.48287 -4.74881 34064 ft 457 kts 34°
2026-04-30 14:47 39.54490 -4.69670 34056 ft 457 kts 33°
2026-04-30 14:47 39.59827 -4.65178 34059 ft 457 kts 33°
2026-04-30 14:48 39.65155 -4.60690 34056 ft 457 kts 33°
2026-04-30 14:48 39.70484 -4.56188 34051 ft 457 kts 33°
2026-04-30 14:49 39.75819 -4.51682 34045 ft 457 kts 33°
2026-04-30 14:49 39.81152 -4.47171 34055 ft 458 kts 33°
2026-04-30 14:50 39.89141 -4.40407 34057 ft 458 kts 33°
2026-04-30 14:51 39.97184 -4.33655 34072 ft 458 kts 28°
2026-04-30 14:52 40.05836 -4.28332 34072 ft 458 kts 25°
2026-04-30 14:52 40.14493 -4.23039 34075 ft 458 kts 25°
2026-04-30 14:53 40.23160 -4.17745 34080 ft 458 kts 25°
2026-04-30 14:54 40.34700 -4.10665 34087 ft 458 kts 25°
2026-04-30 14:55 40.43330 -4.05344 34102 ft 457 kts 24°
2026-04-30 14:56 40.53851 -3.98834 34116 ft 456 kts 25°
2026-04-30 14:57 40.62446 -3.93500 34125 ft 455 kts 24°
2026-04-30 14:58 40.73901 -3.86380 34124 ft 455 kts 25°
2026-04-30 14:58 40.82481 -3.81028 34082 ft 455 kts 24°
2026-04-30 15:00 40.96764 -3.72072 34081 ft 454 kts 24°
2026-04-30 15:01 41.08185 -3.64875 34096 ft 454 kts 24°
2026-04-30 15:01 41.17059 -3.60779 34078 ft 449 kts
2026-04-30 15:02 41.23267 -3.60671 34081 ft 446 kts 356°
2026-04-30 15:03 41.38749 -3.61071 34080 ft 447 kts 356°
2026-04-30 15:04 41.54288 -3.61419 34086 ft 446 kts 356°
2026-04-30 15:05 41.63590 -3.61379 33809 ft 443 kts 356°
2026-04-30 15:06 41.69720 -3.61347 33277 ft 438 kts 356°
2026-04-30 15:06 41.75782 -3.61342 32753 ft 433 kts 356°
2026-04-30 15:07 41.81753 -3.61348 31792 ft 427 kts 356°
2026-04-30 15:07 41.87661 -3.61345 30765 ft 422 kts 356°
2026-04-30 15:08 41.93497 -3.61351 29738 ft 417 kts 356°
2026-04-30 15:08 42.02051 -3.61355 28323 ft 403 kts 356°
2026-04-30 15:09 42.07576 -3.61570 27458 ft 392 kts 353°
2026-04-30 15:09 42.12922 -3.61984 26608 ft 383 kts 353°
2026-04-30 15:10 42.18197 -3.62381 25746 ft 376 kts 353°
2026-04-30 15:11 42.28531 -3.63054 23999 ft 368 kts 354°
2026-04-30 15:11 42.33625 -3.63375 23032 ft 364 kts 354°
2026-04-30 15:12 42.41037 -3.64556 21702 ft 353 kts 348°
2026-04-30 15:13 42.45872 -3.65524 20836 ft 349 kts 349°
2026-04-30 15:14 42.55376 -3.67412 19134 ft 342 kts 349°
2026-04-30 15:14 42.62403 -3.68806 17843 ft 337 kts 349°
2026-04-30 15:16 42.73768 -3.71491 15833 ft 327 kts 345°
2026-04-30 15:17 42.82594 -3.74191 14285 ft 323 kts 345°
2026-04-30 15:18 42.93441 -3.77354 12311 ft 315 kts 351°
2026-04-30 15:19 42.99699 -3.75185 11125 ft 316 kts 27°